Van Nuys, CA

4:42 AM PDT on August 19, 2017 (GMT -0700)
Van Nuys

Weather History for KVNY - November, 2013

Change the Weather History Date:

Friday, November 1, 2013

  Actual Average Record
Temperature  
Mean Temperature 67 °F -  
Max Temperature 84 °F 72 °F 100 °F (1997)
Min Temperature 50 °F 49 °F 42 °F (1996)
Cooling Degree Days 2    
Growing Degree Days 17 (Base 50)    
Moisture  
Dew Point 29 °F    
Average Humidity 29    
Maximum Humidity 56    
Minimum Humidity 10    
Precipitation  
Precipitation 0.00 in - - ()
Sea Level Pressure  
Sea Level Pressure 30.01 in    
Wind  
Wind Speed 2 mph (WNW)    
Max Wind Speed 10 mph    
Max Gust Speed -    
Visibility 10 miles    
Events Rain    
Averages and records for this station are not official NWS values.
T = Trace of Precipitation, MM = Missing Value Source: NWS Daily Summary

Daily Weather History Graph

Daily Weather History Graph

Search for Another Location

Airport or City:

Trip Planner

Search our weather history database for the weather conditions in past years. The results will help you decide how hot, cold, wet, or windy it might be!

Date:

Astronomy

Nov. 01, 2013 Rise Set
Actual Time 7:14 AM PDT 6:00 PM PDT
Civil Twilight 6:48 AM PDT 6:26 PM PDT
Nautical Twilight 6:18 AM PDT 6:56 PM PDT
Astronomical Twilight 5:49 AM PDT 7:25 PM PDT
Moon 5:15 AM PDT (11/1) 4:53 PM PDT (11/1)
Length of Visible Light 11h 38m
Length of Day
10h 46m
Waning Crescent, 4% of the Moon is Illuminated
Nov 1
Waning Crescent
Nov 3
New
Nov 9
First Quarter
Nov 17
Full
Nov 25
Last Quarter

Hourly Weather History & Observations

Time (PDT) Temp. Dew Point Humidity Pressure Visibility Wind Dir Wind Speed Gust Speed Precip Events Conditions
12:51 AM 57.0 °F 37.0 °F 47% 30.04 in 10.0 mi NW 3.5 mph - 0.00 in Rain Light Rain
1:51 AM 55.9 °F 36.0 °F 47% 30.04 in 10.0 mi Calm Calm - 0.00 in   Clear
2:51 AM 54.0 °F 36.0 °F 51% 30.04 in 10.0 mi Calm Calm - N/A   Clear
3:51 AM 52.0 °F 36.0 °F 54% 30.04 in 10.0 mi Calm Calm - N/A   Clear
4:51 AM 51.1 °F 36.0 °F 56% 30.05 in 10.0 mi Calm Calm - N/A   Clear
5:51 AM 51.1 °F 35.1 °F 54% 30.07 in 10.0 mi Calm Calm - N/A   Clear
6:51 AM 50.0 °F 34.0 °F 54% 30.08 in 10.0 mi Calm Calm - N/A   Clear
7:51 AM 53.1 °F 35.1 °F 50% 30.09 in 10.0 mi Calm Calm - 0.00 in   Clear
8:51 AM 60.1 °F 32.0 °F 35% 30.11 in 10.0 mi Calm Calm - N/A   Clear
9:51 AM 66.0 °F 33.1 °F 29% 30.10 in 10.0 mi Calm Calm - N/A   Clear
10:51 AM 75.0 °F 32.0 °F 21% 30.08 in 10.0 mi SW 3.5 mph - N/A   Clear
11:51 AM 81.0 °F 28.9 °F 15% 30.06 in 10.0 mi Variable 3.5 mph - N/A   Clear
12:51 PM 82.0 °F 23.0 °F 11% 30.03 in 10.0 mi WNW 3.5 mph - N/A   Clear
1:51 PM 84.0 °F 21.9 °F 10% 30.00 in 10.0 mi WSW 4.6 mph - 0.00 in   Clear
2:51 PM 84.9 °F 21.0 °F 10% 29.97 in 10.0 mi Calm Calm - N/A   Clear
3:51 PM 84.9 °F 21.9 °F 10% 29.96 in 10.0 mi Variable 3.5 mph - N/A   Clear
4:51 PM 84.0 °F 24.1 °F 11% 29.93 in 10.0 mi SW 4.6 mph - N/A   Clear
5:51 PM 81.0 °F 23.0 °F 12% 29.93 in 10.0 mi North 9.2 mph - 0.00 in   Clear
6:51 PM 78.1 °F 23.0 °F 13% 29.93 in 10.0 mi North 10.4 mph - N/A   Clear
7:51 PM 73.9 °F 24.1 °F 16% 29.94 in 10.0 mi North 6.9 mph - N/A   Clear
8:51 PM 73.0 °F 24.1 °F 16% 29.94 in 10.0 mi Calm Calm - 0.00 in   Clear
9:51 PM 66.9 °F 27.0 °F 22% 29.96 in 10.0 mi Calm Calm - N/A   Clear
10:51 PM 64.0 °F 30.0 °F 28% 29.97 in 10.0 mi Calm Calm - N/A   Clear
11:51 PM 61.0 °F 32.0 °F 34% 29.98 in 10.0 mi Calm Calm - N/A   Clear